FW4468 Weather Reports


time (UTC)temp
F
wind
direction
speed
knots
gust
knots
rain 1hr
in
rain 24hr
in
rain mn
in
humidity
%
barometer
mb
20240614120006 45 142 0.0 0.9 0.00 0.00 0.00 71 1019.6
20240614114512 45 140 0.0 0.9 0.00 0.00 0.00 70 1019.4
20240614113006 46 140 0.0 0.0 0.00 0.00 0.00 70 1019.5
20240614111502 46 140 0.0 0.9 0.00 0.00 0.00 69 1019.6
20240614110104 46 140 0.0 0.0 0.00 0.00 0.00 70 1019.5
20240614104603 47 140 0.0 1.7 0.00 0.00 0.00 69 1019.4
20240614103057 47 140 0.0 0.0 0.00 0.00 0.00 69 1019.3
20240614101604 48 140 0.0 1.7 0.00 0.00 0.00 68 1019.3
20240614100104 48 140 0.0 0.9 0.00 0.00 0.00 68 1019.3
20240614094606 49 140 0.0 1.7 0.00 0.00 0.00 67 1019.3
20240614093057 49 140 0.0 1.7 0.00 0.00 0.00 66 1019.1
20240614091550 49 142 0.9 3.5 0.00 0.00 0.00 66 1019.0
20240614090048 49 98 0.0 1.7 0.00 0.00 0.00 66 1018.9
20240614084545 49 105 0.0 1.7 0.00 0.00 0.00 66 1019.0
20240614083103 48 59 0.0 1.7 0.00 0.00 0.00 66 1018.7
20240614081542 48 59 0.0 1.7 0.00 0.00 0.00 66 1018.7
20240614080040 48 59 0.0 0.0 0.00 0.00 0.00 66 1018.6
20240614074538 49 59 0.0 0.9 0.00 0.00 0.00 64 1018.5
20240614073036 49 59 0.0 0.9 0.00 0.00 0.00 63 1018.7
20240614071539 50 59 0.0 0.9 0.00 0.00 0.00 62 1018.5
20240614070030 50 59 0.0 0.0 0.00 0.00 0.00 61 1018.4
20240614064545 51 59 0.0 0.0 0.00 0.00 0.00 60 1018.1
20240614063130 51 59 0.0 0.9 0.00 0.00 0.00 59 1017.9
20240614061529 52 59 0.0 0.9 0.00 0.00 0.00 56 1017.8
20240614060032 53 59 0.0 0.9 0.00 0.00 0.00 55 1017.8
20240614054535 54 59 0.0 1.7 0.00 0.00 0.00 54 1017.7
20240614053037 54 59 0.0 1.7 0.00 0.00 0.00 52 1017.5
20240614051543 55 58 0.9 2.6 0.00 0.00 0.00 51 1017.5
20240614050026 55 14 0.0 2.6 0.00 0.00 0.00 50 1017.4
20240614044525 55 344 0.0 4.3 0.00 0.00 0.00 49 1017.2
20240614043026 56 327 0.9 3.5 0.00 0.00 0.00 48 1016.7
20240614041527 57 82 1.7 4.3 0.00 0.00 0.00 47 1016.6
20240614040023 58 51 0.9 4.3 0.00 0.00 0.00 45 1016.4
20240614034523 60 38 0.0 3.5 0.00 0.00 0.00 45 1016.5
20240614033023 61 63 0.9 2.6 0.00 0.00 0.00 45 1016.4
20240614031546 62 360 0.0 2.6 0.00 0.00 0.00 43 1016.4
20240614030021 63 55 0.9 3.5 0.00 0.00 0.00 40 1016.3
20240614024523 64 51 0.9 7.8 0.00 0.00 0.00 39 1016.3
20240614023019 64 327 1.7 9.6 0.00 0.00 0.00 38 1016.2
20240614021522 64 42 1.7 6.1 0.00 0.00 0.00 37 1016.3
20240614020017 64 301 1.7 5.2 0.00 0.00 0.00 37 1016.4
20240614014518 64 28 2.6 9.6 0.00 0.00 0.00 38 1016.6
20240614013027 65 56 3.5 8.7 0.00 0.00 0.00 38 1016.6
20240614011516 66 57 1.7 9.6 0.00 0.00 0.00 35 1016.6
20240614010014 66 74 2.6 7.0 0.00 0.00 0.00 32 1016.4
20240614004515 67 67 1.7 8.7 0.00 0.00 0.00 30 1016.4
20240614003012 68 83 2.6 7.8 0.00 0.00 0.00 34 1016.3
20240614001512 68 64 2.6 10.4 0.00 0.00 0.00 37 1016.3
20240614000010 69 44 2.6 7.0 0.00 0.00 0.00 36 1016.3
20240613234509 69 229 1.7 6.1 0.00 0.00 0.00 38 1016.3
20240613233008 70 69 0.9 4.3 0.00 0.00 0.00 36 1016.3
20240613231508 69 339 0.9 3.5 0.00 0.00 0.00 35 1016.2
20240613230006 70 26 0.9 5.2 0.00 0.00 0.00 36 1016.2
20240613224505 69 80 0.9 7.0 0.00 0.00 0.00 35 1016.3
20240613223006 69 360 1.7 7.8 0.00 0.00 0.00 35 1016.5
20240613221502 69 61 0.9 3.5 0.00 0.00 0.00 37 1016.5
20240613220003 70 57 1.7 3.5 0.00 0.00 0.00 33 1016.6
20240613214602 71 126 0.9 6.1 0.00 0.00 0.00 34 1016.6
20240613213110 71 174 1.7 5.2 0.00 0.00 0.00 30 1016.7
20240613211558 70 263 0.9 5.2 0.00 0.00 0.00 33 1016.8
20240613210055 70 199 0.9 3.5 0.00 0.00 0.00 31 1017.0
20240613204551 69 360 1.7 4.3 0.00 0.00 0.00 30 1017.2
20240613203048 68 340 1.7 7.8 0.00 0.00 0.00 33 1017.3
20240613201645 68 225 1.7 5.2 0.00 0.00 0.00 31 1017.3
20240613200044 68 36 0.9 3.5 0.00 0.00 0.00 33 1017.6
20240613194543 67 323 0.0 5.2 0.00 0.00 0.00 33 1017.7
20240613193041 66 24 0.9 6.1 0.00 0.00 0.00 33 1017.8
20240613191539 66 68 0.9 3.5 0.00 0.00 0.00 40 1018.1
20240613190035 66 34 1.7 5.2 0.00 0.00 0.00 41 1018.1
20240613184536 65 348 1.7 6.1 0.00 0.00 0.00 43 1018.1
20240613183031 64 319 0.9 4.3 0.00 0.00 0.00 45 1018.1
20240613181531 64 312 2.6 8.7 0.00 0.00 0.00 48 1018.1
20240613180026 63 66 1.7 6.1 0.00 0.00 0.00 46 1018.4
20240613174525 63 80 1.7 3.5 0.00 0.00 0.00 46 1018.5
20240613173025 63 96 2.6 7.8 0.00 0.00 0.00 46 1018.7
20240613171518 62 136 0.9 5.2 0.00 0.00 0.00 49 1018.9
20240613170016 62 333 0.9 5.2 0.00 0.00 0.00 53 1018.9
20240613164511 60 319 0.9 4.3 0.00 0.00 0.00 57 1018.9
20240613163016 59 236 1.7 5.2 0.00 0.00 0.00 60 1019.0
20240613161503 58 340 0.9 2.6 0.00 0.00 0.00 62 1019.0
20240613160106 56 225 0.0 4.3 0.00 0.00 0.00 65 1019.0
20240613154556 54 199 0.0 4.3 0.00 0.00 0.00 68 1019.1
20240613153120 53 230 0.0 2.6 0.00 0.00 0.00 71 1019.1
20240613151553 51 264 0.9 2.6 0.00 0.00 0.00 73 1019.2
20240613150042 50 285 0.9 3.5 0.00 0.00 0.00 74 1019.3
20240613144539 48 292 0.0 2.6 0.00 0.00 0.00 77 1019.3
20240613143040 47 281 0.9 2.6 0.00 0.00 0.00 80 1019.5
20240613141539 46 301 0.9 2.6 0.00 0.00 0.00 84 1019.4
20240613140037 45 69 0.0 0.9 0.00 0.00 0.00 84 1019.2
20240613134536 44 69 0.0 0.9 0.00 0.00 0.00 83 1019.4
20240613133034 43 69 0.0 0.0 0.00 0.00 0.00 82 1019.3
20240613131533 42 69 0.0 0.0 0.00 0.00 0.00 80 1019.4
20240613130034 42 69 0.0 0.9 0.00 0.00 0.00 77 1019.5
20240613124532 42 69 0.0 0.0 0.00 0.00 0.00 76 1019.6
20240613123035 42 69 0.0 0.0 0.00 0.00 0.00 75 1019.6
20240613121551 42 69 0.0 0.0 0.00 0.00 0.00 75 1019.5